Regional Weather Roundup
Issued by NWS

Home | Current Version | Previous Version | Graphics & Text | Print | Product List | Glossary On
Versions: 1 2 3 4 5 6 7 8 9 10 11 12 13 14 15 16 17 18 19 20 21 22 23 24 25 26 27 28 29 30 31 32 33 34 35 36 37 38 39 40 41 42 43 44 45 46 47 48 49 50
000
ASUS43 KOAX 180502
RWRNE

WEATHER ROUNDUP FOR NEBRASKA
NATIONAL WEATHER SERVICE OMAHA NE
1200 AM CDT SAT APR 18 2015

NOTES: SATELLITE DATA IS BEING USED TO AUGMENT CLOUD COVER ABOVE
       12000 FEET.
       "FAIR" INDICATES FEW OR NO CLOUDS BELOW 12,000 FEET WITH NO
       SIGNIFICANT WEATHER AND/OR OBSTRUCTIONS TO VISIBILITY.

  * THESE STATIONS DO NOT REPORT WEATHER SUCH AS RAIN...SNOW OR FOG.

NEZ001>004-019>022-054>056-180600-
NEBRASKA PANHANDLE

CITY           SKY/WX    TMP DP  RH WIND       PRES   REMARKS
SCOTTSBLUFF    RAIN      43  43 100 NW6       30.06S FOG
ALLIANCE       LGT RAIN  48  47  96 NE12      30.02F
CHADRON        CLOUDY    47  46  97 N6        30.07S
SIDNEY         RAIN      42  40  92 W20       30.05R FOG
$$

NEZ057>060-069>072-079>082-180600-
SOUTHWEST NEBRASKA

CITY           SKY/WX    TMP DP  RH WIND       PRES   REMARKS
NORTH PLATTE   CLOUDY    55  52  89 E16       29.98S
IMPERIAL       LGT RAIN  51  44  77 SW15      29.98F
MCCOOK         CLOUDY    53  47  79 NW12      29.96F
$$

NEZ005>010-023>029-035>040-094-180600-
NORTH CENTRAL NEBRASKA

CITY           SKY/WX    TMP DP  RH WIND       PRES   REMARKS
VALENTINE      RAIN      53  49  86 N9        30.05F
AINSWORTH      LGT RAIN  54  51  89 S3        30.07R
BROKEN BOW     PTCLDY    54  51  90 E8        30.00S
ORD            LGT RAIN  56  53  90 NE9       30.00S
$$

NEZ041-046>049-061>064-073>077-083>087-180600-
SOUTH CENTRAL NEBRASKA

CITY           SKY/WX    TMP DP  RH WIND       PRES   REMARKS
GRAND ISLAND   MOCLDY    54  51  90 E6        29.99F
HASTINGS       CLOUDY    55  52  89 NE6       29.97F
KEARNEY *      CLOUDY    54  52  94 NE8       29.98F
$$

NEZ011>018-030>034-042>045-180600-
NORTHEAST NEBRASKA

CITY           SKY/WX    TMP DP  RH WIND       PRES   REMARKS
BLAIR          CLOUDY    66  51  58 CALM      29.99F
COLUMBUS *     CLOUDY    61  50  67 NE7       30.01F
TEKAMAH        CLOUDY    63  51  65 NE8       29.99F
$$

NEZ050>053-065>068-078-088>093-180600-
SOUTHEAST NEBRASKA

CITY           SKY/WX    TMP DP  RH WIND       PRES   REMARKS
LINCOLN        CLOUDY    63  56  78 CALM      29.98F
OMAHA EPPLEY   CLOUDY    63  55  75 N3        29.99S
FALLS CITY     CLOUDY    63  55  75 NE5       29.97S
$$

NEZ044-045-051>053-067-180600-
OMAHA AREA

CITY           SKY/WX    TMP DP  RH WIND       PRES   REMARKS
OMAHA EPPLEY   CLOUDY    63  55  75 N3        29.99S
BLAIR          CLOUDY    66  51  58 CALM      29.99F
OFFUTT AFB     CLOUDY    64  56  73 NE5       29.97F
$$



USA.gov is the U.S. government's official web portal to all federal, state and local government web resources and services.